Tracking 30289 objects as of 29-Apr-2025
HD Live streaming from Space Station
objects crossing your sky now

STARLINK-2159

Track STARLINK-2159 now!
10-day predictions
STARLINK-2159 is classified as:


NORAD ID: 47745
Int'l Code: 2021-017Z
Perigee: 553.5 km
Apogee: 555.3 km
Inclination: 53.1 °
Period: 95.6 minutes
Semi major axis: 6925 km
RCS: Unknown
Launch date: March 4, 2021
Source: United States (US)
Launch site: AIR FORCE EASTERN TEST RANGE (AFETR)
Your satellite tracking list
Your tracking list is empty




NASA's NSSDC Master Catalog

Two Line Element Set (TLE):
1 47745U 21017Z   25118.46454364  .00002063  00000-0  15740-3 0  9992
2 47745  53.0536 186.7196 0001294  88.0622 272.0516 15.06389025230211
Source of the keplerian elements: AFSPC